Weather History for KDEW - July, 2014

Change the Weather History Date:

Friday, July 4, 2014

  Actual Average Record
Temperature  
Mean Temperature 69 °F 63 °F  
Max Temperature 81 °F 79 °F 97 °F (2001)
Min Temperature 56 °F 47 °F 34 °F (2012)
Degree Days  
Heating Degree Days 0 4  
Month to date heating degree days 0 16  
Since 1 June heating degree days 206 216  
Since 1 July heating degree days 0 16  
Cooling Degree Days 4 2  
Month to date cooling degree days 24 5  
Year to date cooling degree days 26 25  
Since 1 June cooling degree days 26 22  
Growing Degree Days 18 (Base 50)    
Moisture  
Dew Point 44 °F    
Average Humidity 50    
Maximum Humidity 77    
Minimum Humidity 23    
Precipitation  
Precipitation 0.00 in 0.05 in 0.08 in (2000)
Month to date precipitation 0.00 0.21  
Year to date precipitation 13.59 11.91  
Sea Level Pressure  
Sea Level Pressure 29.91 in    
Wind  
Wind Speed 6 mph (SSE)    
Max Wind Speed 15 mph    
Max Gust Speed 47 mph    
Visibility 10 miles    
Events      
T = Trace of Precipitation, MM = Missing Value Source: NWS Daily Summary

Daily Weather History Graph

Daily Weather History Graph

Search for Another Location

Airport or City:

Trip Planner

Search our weather history database for the weather conditions in past years. The results will help you decide how hot, cold, wet, or windy it might be!

Date:

Astronomy

Jul. 04, 2014 Rise Set
Actual Time 4:56 AM PDT 8:51 PM PDT
Civil Twilight 4:15 AM PDT 9:32 PM PDT
Nautical Twilight 3:19 AM PDT 10:27 PM PDT
Astronomical Twilight 1:51 AM PDT 11:54 PM PDT
Moon 12:30 PM PDT (7/4) No Moon Set
Length of Visible Light 17h 16m
Length of Day
15h 55m
Waxing Crescent, 43% of the Moon is Illuminated
Jul 4
Waxing Crescent
Jul 5
First Quarter
Jul 12
Full
Jul 18
Last Quarter
Jul 26
New

Hourly Weather History & Observations

Time (PDT) Temp. Dew Point Humidity Pressure Visibility Wind Dir Wind Speed Gust Speed Precip Events Conditions
12:53 AM 61.0 °F 45.0 °F 56% 29.88 in 10.0 mi SSE 5.8 mph - N/A   Clear
1:53 AM 61.0 °F 46.0 °F 58% 29.88 in 10.0 mi South 5.8 mph - N/A   Clear
2:53 AM 61.0 °F 46.0 °F 58% 29.88 in 10.0 mi SSE 6.9 mph - N/A   Clear
3:53 AM 60.1 °F 45.0 °F 57% 29.89 in 10.0 mi South 9.2 mph - N/A   Clear
4:53 AM 57.9 °F 43.0 °F 58% 29.92 in 10.0 mi South 9.2 mph - N/A   Clear
5:53 AM 60.1 °F 44.1 °F 55% 29.92 in 10.0 mi South 8.1 mph - N/A   Clear
6:53 AM 60.1 °F 43.0 °F 53% 29.94 in 10.0 mi SSE 5.8 mph - N/A   Clear
7:53 AM 64.9 °F 42.1 °F 43% 29.95 in 10.0 mi SSE 10.4 mph - N/A   Clear
8:53 AM 66.9 °F 42.1 °F 40% 29.96 in 10.0 mi South 8.1 mph - N/A   Clear
9:53 AM 69.1 °F 41.0 °F 36% 29.96 in 10.0 mi Calm Calm - N/A   Clear
10:53 AM 73.0 °F 41.0 °F 31% 29.96 in 10.0 mi Variable 5.8 mph - N/A   Clear
11:53 AM 75.0 °F 42.1 °F 31% 29.94 in 10.0 mi SSE 10.4 mph - N/A   Clear
12:53 PM 77.0 °F 46.0 °F 33% 29.94 in 10.0 mi South 12.7 mph - N/A   Clear
1:53 PM 77.0 °F 44.1 °F 31% 29.93 in 10.0 mi South 8.1 mph - N/A   Clear
2:53 PM 80.1 °F 45.0 °F 29% 29.91 in 10.0 mi South 9.2 mph 18.4 mph N/A   Clear
3:53 PM 79.0 °F 42.1 °F 27% 29.91 in 10.0 mi SSE 11.5 mph - N/A   Clear
4:53 PM 79.0 °F 37.0 °F 22% 29.90 in 10.0 mi Variable 6.9 mph - N/A   Clear
5:53 PM 75.9 °F 41.0 °F 29% 29.89 in 10.0 mi SSE 6.9 mph - N/A   Clear
6:53 PM 75.9 °F 39.9 °F 27% 29.88 in 10.0 mi SSE 4.6 mph - N/A   Clear
7:53 PM 73.9 °F 44.1 °F 34% 29.87 in 10.0 mi Calm Calm - N/A   Clear
8:53 PM 64.0 °F 51.1 °F 63% 29.89 in 10.0 mi Calm Calm - N/A   Clear
9:53 PM 60.1 °F 50.0 °F 69% 29.90 in 10.0 mi Calm Calm - N/A   Clear
10:53 PM 57.0 °F 46.9 °F 69% 29.91 in 10.0 mi Calm Calm - N/A   Clear
11:53 PM 57.9 °F 50.0 °F 75% 29.91 in 10.0 mi Calm Calm - N/A   Clear